{"data":{"norad_id":27651,"intl_designator":"2003-004A","name":"SORCE","alt_names":[],"object_type":"PAYLOAD","status":"ACTIVE","operator":null,"country":"US","launch_date":"2003-01-25","launch_site_code":"ERAS","launch_vehicle":null,"mission":null,"orbit_class":"UNKNOWN","rcs_meters":1.7809,"size_class":null,"mass_kg":null,"dimensions":null,"purposes":["science"],"wikipedia_slug":null,"has_3d_model":false,"image_url":null,"decayed_at":null,"tle_current":{"epoch":"2026-05-25T02:13:45.187104Z","epoch_age_seconds":60382,"freshness":"FRESH","line1":"1 27651U 03004A   26145.09288411  .00002562  00000+0  19459-3 0  9994","line2":"2 27651  39.9924  33.4247 0018644 248.3068 111.5741 15.03562587268420","mean_motion":15.03562587,"eccentricity":0.0018644,"inclination_deg":39.9924,"raan_deg":33.4247,"arg_perigee_deg":248.3068,"mean_anomaly_deg":111.5741,"bstar":0.00019459,"rev_number":26842,"period_min":95.772534675339,"perigee_km":542.99363439067,"apogee_km":568.84935169954,"semimajor_km":6934.0584930451,"source":"CELESTRAK","updated_at":"2026-05-25T13:38:24.637431Z"}}}